Station ANPT2 - 8775241 - Aransas, Aransas Pass, TX Image indicating link to RSS feed of recent meteorological observations for station ANPT2


Conditions at ANPT2 as of
(1:18 am CDT)
0618 GMT on 06/13/2024:
     

Click on the graph icon in the table below to see a time series plot of the last five days of that observation.

5-day plot - Wind Direction Wind Direction (WDIR):ENE ( 70 deg true )
5-day plot - Wind Speed Wind Speed (WSPD): 9.9 kts
5-day plot - Wind Gust Wind Gust (GST): 11.1 kts
5-day plot - Atmospheric Pressure Atmospheric Pressure (PRES):29.84 in
5-day plot - Air Temperature Air Temperature (ATMP): 85.3 °F
5-day plot - Water Temperature Water Temperature (WTMP): 87.4 °F
5-day plot - Wind Speed at 10 Meters Wind Speed at 10 meters (WSPD10M): 11.7 kts
5-day plot - Wind Speed at 20 Meters Wind Speed at 20 meters (WSPD20M): 11.7 kts
5-day plot -  Wind Speed, Wind Gust and Atmospheric Pressure Combined plot of Wind Speed, Gust, and Air Pressure
Previous observations
TIME
(CDT)
5-day plot - Wind Direction
WDIR
 
5-day plot - Wind Speed
WSPD
kts
5-day plot - Wind Gust
GST
kts
5-day plot - Wave Height
WVHT
ft
5-day plot - Dominant Wave Period
DPD
sec
5-day plot - Average Wave Period
APD
sec
5-day plot - Mean Wave Direction
MWD
 
5-day plot - Atmospheric Pressure
PRES
in
5-day plot - Pressure Tendency
PTDY
in
5-day plot - Air Temperature
ATMP
°F
5-day plot - Water Temperature
WTMP
°F
5-day plot - Dew Point
DEWP
°F
5-day plot - Salinity
SAL
psu
5-day plot - Visibility
VIS
nmi
5-day plot - Tide (above MLLW)
TIDE
ft
2024-06-13 01:12 amENE 8.9 11.1----29.84- 85.1 87.4----
2024-06-13 01:06 amENE 8.9 11.1----29.84- 85.1 87.4----
2024-06-13 01:00 amENE 9.9 11.1----29.84+0.01------
2024-06-13 12:54 am E 8.9 9.9----29.84-------
2024-06-13 12:48 am-------29.84- 85.3 87.4----
2024-06-13 12:42 am-------29.84- 85.3 87.3----
2024-06-13 12:36 am-------29.84- 85.3 87.3----
2024-06-13 12:30 am E 8.9 11.1----29.84- 85.1 87.4----
2024-06-13 12:24 amENE 8.0 11.1----29.84- 85.3 87.4----
2024-06-13 12:18 amENE 8.9 8.9----29.84- 85.3 87.3----
2024-06-13 12:12 amENE 8.9 9.9----29.84- 85.5 87.3----
2024-06-13 12:06 am E 9.9 11.1----29.84- 85.5 87.3----
2024-06-13 12:00 am-------29.84- 85.3 87.3----
2024-06-12 11:54 pm-------29.84- 85.3 87.3----
2024-06-12 11:48 pmENE 9.9 12.0----29.84- 85.3 87.3----
2024-06-12 11:42 pmENE 9.9 12.0----29.84- 85.3 87.3----
2024-06-12 11:36 pmENE 9.9 11.1----29.84- 85.3 87.3----
2024-06-12 11:30 pmENE 8.9 12.0----29.84- 85.5 87.3----
2024-06-12 11:24 pmENE 8.9 11.1----29.84- 85.5 87.3----
2024-06-12 11:18 pmENE 8.9 11.1----29.85- 85.3 87.3----
2024-06-12 11:12 pmENE 9.9 11.1----29.84- 85.5 87.3----
2024-06-12 11:06 pmENE 8.9 12.0----29.84- 85.5 87.3----
2024-06-12 11:00 pmENE 11.1 12.0----29.84- 85.5 87.3----
2024-06-12 10:54 pmENE 9.9 12.0----29.84- 85.5 87.3----
2024-06-12 10:48 pmENE 9.9 11.1----29.84-- 87.3----
2024-06-12 10:42 pmENE 9.9 11.1----29.84-- 87.3----
2024-06-12 10:36 pm E 11.1 13.0----29.84-- 87.3----
2024-06-12 10:30 pmENE 9.9 12.0------------
2024-06-12 10:24 pmENE 9.9 11.1------------
2024-06-12 10:18 pmENE 8.9 12.0----29.84-- 87.3----
2024-06-12 10:12 pmENE 9.9 12.0----29.83-- 87.3----
2024-06-12 10:06 pmENE 8.9 12.0----29.83-- 87.3----
2024-06-12 10:00 pm NE 9.9 12.0----29.83+0.01 85.3 87.3----
2024-06-12 09:54 pmENE 9.9 11.1----29.83- 85.6 87.3----
2024-06-12 09:48 pmENE 8.9 11.1----29.83- 85.5 87.3----
2024-06-12 09:42 pmENE 9.9 12.0----29.83- 85.5 87.3----
2024-06-12 09:36 pmENE 12.0 13.0----29.82- 85.5 87.3----
2024-06-12 09:30 pmENE 11.1 12.0----29.83- 85.5 87.3----
2024-06-12 09:24 pmENE 9.9 12.0----29.83- 85.6 87.3----
2024-06-12 09:18 pmENE 11.1 12.0----29.82- 85.6-----
2024-06-12 09:12 pmENE 9.9 12.0----29.82- 85.5-----
2024-06-12 09:06 pmENE 8.9 12.0----29.83- 85.6-----
2024-06-12 09:00 pmENE 11.1 12.0------------
2024-06-12 08:54 pm NE 9.9 11.1------------
2024-06-12 08:48 pmENE 9.9 12.0----29.82-- 87.1----
2024-06-12 08:42 pm NE 11.1 13.0----29.83-- 87.1----
2024-06-12 08:36 pm NE 9.9 12.0----29.82-- 87.1----
2024-06-12 08:30 pmENE 11.1 13.0----29.82- 85.8 87.1----
2024-06-12 08:24 pm NE 11.1 13.0----29.82- 85.8 87.1----
2024-06-12 08:18 pmENE 9.9 11.1----29.83-- 87.1----
2024-06-12 08:12 pmENE 8.9 11.1----29.83-- 87.1----
2024-06-12 08:06 pmENE 8.9 11.1----29.83-- 87.1----
2024-06-12 08:00 pm NE 8.9 9.9------- 87.1----
2024-06-12 07:54 pmENE 8.9 9.9------- 87.3----
2024-06-12 07:48 pm E 8.9 11.1----29.83-- 87.3----
2024-06-12 07:42 pm E 9.9 12.0----29.83-- 87.3----
2024-06-12 07:36 pmENE 9.9 12.0----29.82-- 87.3----
2024-06-12 07:30 pmENE 9.9 12.0----29.82-- 87.3----
2024-06-12 07:24 pmENE 9.9 11.1----29.82-- 87.3----
2024-06-12 07:18 pmENE 9.9 12.0----29.82- 86.0 87.3----
2024-06-12 07:12 pmENE 9.9 11.1----29.82- 86.0 87.4----
2024-06-12 07:06 pm E 8.9 11.1----29.82- 85.8 87.6----
2024-06-12 07:00 pmENE 9.9 11.1----29.81-0.02- 87.6----
2024-06-12 06:54 pmENE 11.1 12.0----29.81-- 87.6----
2024-06-12 06:48 pmENE 8.0 11.1----29.81-- 87.6----
2024-06-12 06:42 pmENE 8.9 9.9----29.81-- 87.8----
2024-06-12 06:36 pmENE 8.0 8.9----29.82-- 87.8----
2024-06-12 06:30 pmENE 8.0 11.1----29.82- 86.2 87.8----
2024-06-12 06:24 pmENE 8.9 12.0----29.82- 86.0 87.8----
2024-06-12 06:00 pmENE 12.0 15.0----29.81-0.04- 88.0----
2024-06-12 05:54 pmENE 11.1 14.0----29.81-- 88.0----
2024-06-12 05:48 pmENE 8.9 12.0----29.82-- 88.0----
2024-06-12 05:42 pm NE 9.9 11.1----29.83-- 88.0----
2024-06-12 05:36 pm NE 7.0 12.0----29.83-- 88.0----
2024-06-12 05:30 pm NE 9.9 12.0----29.83- 85.8 88.0----
2024-06-12 05:24 pm NE 9.9 11.1----29.83- 85.8 88.0----
2024-06-12 05:18 pm NE 8.9 9.9----29.83-- 88.0----
2024-06-12 05:12 pm NE 8.0 11.1----29.84-- 88.2----
2024-06-12 05:06 pm NE 9.9 13.0----29.84-- 88.0----
2024-06-12 05:00 pm-------29.84-0.02- 88.0----
2024-06-12 04:54 pm-------29.84-- 88.0----
2024-06-12 04:48 pmENE 11.1 12.0----29.84-- 87.8----
2024-06-12 04:42 pmENE 11.1 12.0----29.84-- 87.8----
2024-06-12 04:36 pmENE 9.9 11.1----29.84-- 87.6----
2024-06-12 04:30 pm-------29.83- 85.6 87.6----
2024-06-12 04:24 pm-------29.83- 85.5 87.6----
2024-06-12 04:18 pm E 12.0 13.0----29.83- 85.5 87.6----
2024-06-12 04:12 pm E 11.1 13.0----29.83- 85.6 87.6----
2024-06-12 04:06 pm E 11.1 13.0----29.83- 85.6 87.6----
2024-06-12 04:00 pm E 11.1 12.0----29.83-0.04- 87.6----
2024-06-12 03:54 pm E 11.1 13.0----29.83-- 87.4----
2024-06-12 03:48 pm E 12.0 13.0----29.83-- 87.4----
2024-06-12 03:42 pm E 11.1 13.0----29.83-- 87.4----
2024-06-12 03:36 pm E 11.1 12.0----29.83-- 87.4----
2024-06-12 03:30 pm E 9.9 12.0----29.84- 86.0 87.4----
2024-06-12 03:24 pm E 11.1 13.0----29.84- 85.6 87.4----
2024-06-12 03:18 pm E 11.1 12.0----29.85- 85.6 87.6----
2024-06-12 03:12 pm E 11.1 12.0----29.85- 85.6 87.8----
2024-06-12 03:06 pm E 11.1 13.0----29.85- 85.5 87.6----
2024-06-12 03:00 pm E 9.9 12.0----29.85-0.03- 87.6----
2024-06-12 02:54 pm E 9.9 12.0----29.85-- 87.4----
2024-06-12 02:48 pm E 8.9 12.0----29.85-- 87.4----
2024-06-12 02:42 pm E 9.9 11.1----29.86-- 87.4----
2024-06-12 02:36 pm E 8.9 11.1----29.86-- 87.3----
2024-06-12 02:30 pm E 8.9 9.9----29.86- 85.6 87.4----
2024-06-12 02:24 pm E 8.0 9.9----29.86- 85.5 87.4----
2024-06-12 02:18 pm E 8.0 8.9----29.86- 85.5 87.4----
2024-06-12 02:12 pm E 7.0 8.9----29.86- 85.5 87.3----
2024-06-12 02:06 pm E 6.0 8.0----29.86- 85.6 87.4----
2024-06-12 02:00 pm E 7.0 8.0----29.86-0.01 85.5 87.3----
2024-06-12 01:54 pm E 7.0 8.0----29.86- 85.5 87.4----
2024-06-12 01:48 pm E 6.0 8.9----29.87-- 87.4----
2024-06-12 01:42 pm E 7.0 8.0----29.87-- 87.4----
2024-06-12 01:36 pmESE 6.0 8.9----29.87-- 87.4----
2024-06-12 01:30 pm E 7.0 8.0----29.87- 85.6 87.3----
2024-06-12 01:24 pmESE 6.0 8.0----29.87- 85.5 87.3----
2024-06-12 01:18 pm E 7.0 8.9----29.87-- 87.4----
2024-06-12 01:12 pm E 6.0 7.0----29.88-- 87.4----
2024-06-12 01:06 pm E 6.0 7.0----29.88-- 87.3----
2024-06-12 01:00 pm E 6.0 8.0----29.88+0.00- 87.3----
2024-06-12 12:54 pm E 6.0 7.0----29.88-- 87.3----
2024-06-12 12:48 pmESE 6.0 7.0----29.88-------
2024-06-12 12:42 pm E 6.0 7.0----29.88-------
2024-06-12 12:36 pmESE 5.1 8.0----29.88-------
2024-06-12 12:30 pm E 7.0 8.0----29.88- 85.5 87.3----
2024-06-12 12:24 pmESE 6.0 7.0----29.88- 85.3 87.3----
2024-06-12 12:18 pmESE 6.0 7.0----29.88-- 87.3----
2024-06-12 12:12 pmESE 5.1 7.0----29.88-- 87.3----
2024-06-12 12:06 pmESE 6.0 8.0----29.88-- 87.3----
2024-06-12 12:00 pm-------29.88+0.00 85.3 87.3----
2024-06-12 11:54 am-------29.88- 85.5 87.1----
2024-06-12 11:48 amESE 5.1 6.0----29.88-- 87.1----
2024-06-12 11:42 amESE 5.1 6.0----29.88-- 87.1----
2024-06-12 11:36 am SE 5.1 8.0----29.88-- 87.1----
2024-06-12 11:30 am SE 6.0 7.0----29.88- 85.5-----
2024-06-12 11:24 am SE 6.0 7.0----29.88- 85.3-----
2024-06-12 11:18 am SE 5.1 7.0----29.88-------
2024-06-12 11:12 am SE 5.1 6.0----29.88-------
2024-06-12 11:06 amESE 5.1 6.0----29.88-------
2024-06-12 11:00 am-------29.88+0.03 85.5 87.1----
2024-06-12 10:54 am-------29.88- 85.3 86.9----
2024-06-12 10:48 am SE 6.0 7.0----29.88- 85.5 86.9----
2024-06-12 10:42 am SE 6.0 7.0----29.88- 85.6 87.1----
2024-06-12 10:36 amSSE 5.1 8.0----29.88- 85.5 87.1----
2024-06-12 10:30 am SE 7.0 8.0----29.88- 85.1 87.1----
2024-06-12 10:24 am SE 7.0 8.9----29.88- 84.9 87.1----
2024-06-12 10:18 am SE 7.0 8.9----29.88- 84.9 87.1----
2024-06-12 10:12 am SE 7.0 8.9----29.88- 85.1 87.1----
2024-06-12 10:06 am SE 6.0 7.0----29.88- 85.1 87.1----
2024-06-12 10:00 am SE 6.0 7.0----29.88+0.04- 87.1----
2024-06-12 09:54 am SE 6.0 7.0----29.88-- 86.9----
2024-06-12 09:48 am SE 5.1 7.0----29.88-- 86.9----
2024-06-12 09:42 am SE 5.1 8.0----29.88-- 86.9----
2024-06-12 09:36 am S 7.0 8.0----29.88-- 86.9----
2024-06-12 09:30 amSSE 7.0 8.0----29.88- 85.1 86.9----
2024-06-12 09:24 amSSE 6.0 8.0----29.88- 85.1 86.9----
2024-06-12 09:18 amSSE 8.0 8.9----29.88-- 86.9----
2024-06-12 09:12 am SE 7.0 8.9----29.88-- 86.9----
2024-06-12 09:06 am SE 7.0 8.9----29.88-- 86.7----
2024-06-12 09:00 amSSE 7.0 8.0----29.88+0.05 85.1 86.7----
2024-06-12 08:54 amSSE 7.0 8.9----29.87- 85.1 86.7----
2024-06-12 08:48 amSSE 6.0 7.0----29.87-- 86.9----
2024-06-12 08:42 am SE 5.1 7.0----29.86-- 86.9----
2024-06-12 08:36 am SE 7.0 8.0----29.86-- 87.1----
2024-06-12 08:30 am SE 6.0 8.9----29.86- 85.1 86.9----
2024-06-12 08:24 am SE 7.0 8.0----29.85- 85.1 86.9----
2024-06-12 08:18 amSSE 8.0 8.9----29.85- 84.9 86.9----
2024-06-12 08:12 am SE 7.0 8.0----29.85- 84.9 86.9----
2024-06-12 08:06 am SE 8.0 8.9----29.85- 84.9 87.1----
2024-06-12 08:00 amSSE 8.0 8.9----29.85+0.04 84.9 87.1----
2024-06-12 07:54 am SE 7.0 9.9----29.85- 84.7 87.1----
2024-06-12 07:48 am SE 7.0 8.0----29.85- 84.9 87.1----
2024-06-12 07:42 am SE 7.0 8.0----29.84- 84.7 87.1----
2024-06-12 07:36 am SE 6.0 8.0----29.84- 84.9 87.1----
2024-06-12 07:30 am SE 6.0 8.0----29.84- 84.7 87.1----
2024-06-12 07:24 am SE 6.0 7.0----29.84- 84.9 87.3----
2024-06-12 07:18 am SE 7.0 8.0----29.84- 84.9 87.3----
2024-06-12 07:12 am SE 8.0 8.9----29.84- 84.7 87.4----
2024-06-12 07:06 amESE 6.0 8.0----29.84- 84.6 87.3----
2024-06-12 07:00 amESE 6.0 7.0----29.84+0.03 84.7 87.3----
2024-06-12 06:54 amESE 7.0 8.0----29.84- 84.6 87.3----
2024-06-12 06:48 amESE 6.0 8.0----29.84-- 87.3----
2024-06-12 06:42 amESE 7.0 8.0----29.84-- 87.3----
2024-06-12 06:36 am SE 7.0 8.9----29.83-- 87.3----
2024-06-12 06:30 amESE 7.0 8.0----29.83- 84.7 87.3----
2024-06-12 06:24 am SE 7.0 8.9----29.83- 84.6 87.3----
2024-06-12 06:18 amESE 6.0 7.0----29.83- 84.6 87.3----
2024-06-12 06:12 amESE 6.0 8.0----29.83- 84.6 87.3----
2024-06-12 06:06 amESE 8.0 8.0----29.83- 84.6 87.3----
2024-06-12 06:00 am SE 7.0 8.9----29.82+0.01 84.7 87.3----
2024-06-12 05:54 amESE 8.0 9.9----29.82- 84.7 87.3----
2024-06-12 05:48 amESE 8.0 8.9----29.82-- 87.1----
2024-06-12 05:42 amESE 8.9 9.9----29.82-- 87.1----
2024-06-12 05:36 am SE 8.9 11.1----29.83-- 87.1----
2024-06-12 05:30 amESE 8.0 9.9----29.82- 84.7 87.1----
2024-06-12 05:24 am E 7.0 8.9----29.82- 84.6 87.1----
2024-06-12 05:18 am E 8.0 9.9----29.82-- 87.1----
2024-06-12 05:12 amESE 8.9 9.9----29.82-- 87.1----
2024-06-12 05:06 amESE 9.9 11.1----29.81-- 87.3----
2024-06-12 05:00 amESE 8.9 12.0----29.81+0.00 84.6 87.3----
2024-06-12 04:54 am E 8.9 11.1----29.81- 84.7 87.3----
2024-06-12 04:48 amESE 8.9 11.1----29.81-- 87.3----
2024-06-12 04:42 amESE 8.0 9.9----29.81-- 87.3----
2024-06-12 04:36 amESE 8.0 8.9----29.81-- 87.3----
2024-06-12 04:30 am E 7.0 9.9----29.81- 84.7 87.3----
2024-06-12 04:24 amESE 8.0 9.9----29.81- 84.7 87.1----
2024-06-12 04:18 amESE 8.9 11.1----29.81- 84.7 87.1----
2024-06-12 04:12 amESE 9.9 11.1----29.81- 84.7 87.1----
2024-06-12 04:06 amESE 8.9 12.0----29.81- 84.7 87.1----
2024-06-12 04:00 amESE 9.9 11.1----29.81+0.00- 87.1----
2024-06-12 03:54 amESE 9.9 11.1----29.81-- 87.1----
2024-06-12 03:48 amESE 8.0 11.1----29.81-- 87.1----
2024-06-12 03:42 amESE 8.9 11.1----29.81-- 87.1----
2024-06-12 03:36 amESE 9.9 12.0----29.81-- 87.1----
2024-06-12 03:30 amESE 9.9 11.1----29.81- 84.7 87.1----
2024-06-12 03:24 am E 11.1 12.0----29.80- 84.7 87.1----
2024-06-12 03:18 amESE 8.9 11.1----29.81- 84.9 87.1----
2024-06-12 03:12 amESE 9.9 13.0----29.81- 84.7 87.1----
2024-06-12 03:06 amESE 9.9 12.0----29.81- 84.7 87.1----
2024-06-12 03:00 am E 11.1 13.0----29.81-0.01- 87.1----
2024-06-12 02:54 am E 9.9 12.0----29.81-- 87.1----
2024-06-12 02:48 am E 11.1 12.0----29.81- 84.7 87.1----
2024-06-12 02:42 amESE 11.1 13.0----29.81- 85.1 87.1----
2024-06-12 02:36 amESE 11.1 13.0----29.81- 84.9 87.1----
2024-06-12 02:30 amESE 13.0 15.0----29.81- 84.9 87.1----
2024-06-12 02:24 amESE 13.0 15.9----29.81- 84.7 87.1----
2024-06-12 02:18 am E 14.0 15.0----29.80- 84.9 86.9----
2024-06-12 02:12 am E 13.0 15.9----29.81- 85.1 86.9----
2024-06-12 02:06 am E 13.0 15.0----29.81- 85.1 86.9----
2024-06-12 02:00 amESE 13.0 14.0----29.82+0.02 84.9 86.9----
2024-06-12 01:54 am E 13.0 14.0----29.82- 84.9 86.9----
2024-06-12 01:48 amESE 12.0 14.0----29.82- 84.9 86.9----
2024-06-12 01:42 am E 13.0 15.0----29.81- 84.9 86.9----
2024-06-12 01:36 amESE 12.0 14.0----29.82- 85.1 86.9----
2024-06-12 01:30 am E 12.0 14.0----29.82-- 86.9----
2024-06-12 01:24 am E 13.0 15.0----29.81-- 86.9----
2024-06-12 01:18 am E 12.0 15.9----29.81- 85.3 86.9----
2024-06-12 01:12 am E 14.0 15.9----29.80- 84.9 86.9----
2024-06-12 01:06 am E 12.0 14.0----29.81- 85.1 86.9----
2024-06-12 01:00 am E 13.0 15.0----29.81+0.00 85.1 86.9----
2024-06-12 12:54 am E 12.0 14.0----29.82- 84.9 86.9----